Lexington Weather

Lexington, Massachusetts, USA

26°F
2/29/2020 1:51am 
  • Lexington Conditions: Clear
  • Temperature: 26.2°F / -3.2°CColder 0.9°F than last hour.
  • Dew Point: 15.1°FIncreased 0.4°Fsince last hour.
  • Relative Humidity: 62%Increased 3.0% since last hour.
  • Wind: Calm, 10-min avg: Calm, gust: 2 mph
  • Barometer: 29.74 in Steady
  • Visibility: 10 miles
  • Snow Today: 0.0 in
  •   

Regional Weather Roundup
for Boston / Norton, MA

        
000
ASUS41 KBOX 261410
RWRBOX

REGIONAL WEATHER ROUNDUP
NATIONAL WEATHER SERVICE BOSTON/NORTON MA
900 AM EST WED FEB 26 2020

NOTE:  "FAIR" INDICATES FEW OR NO CLOUDS BELOW 12,000 FEET WITH NO 
SIGNIFICANT WEATHER AND/OR OBSTRUCTIONS TO VISIBILITY.

MAZALL-261500-
EASTERN MASSACHUSETTS
  
CITY           SKY/WX    TMP DP  RH WIND       PRES   REMARKS
BOSTON         CLOUDY    46  37  71 NE7       30.00R                  
BEVERLY        CLOUDY    44  36  73 NE7       29.99S                  
LAWRENCE       CLOUDY    44  37  76 NE6       30.02R                  
BEDFORD        CLOUDY    43  36  76 N6        29.99R                  
BLUE HILL        N/A     40  37  89 NE7       29.97R                  
NORWOOD        CLOUDY    48  39  71 CALM      30.00R                  
MARSHFIELD     PTSUNNY   45  43  93 VRB3      29.99R                  
PLYMOUTH       CLOUDY    43  42  97 N8        29.99R                  
TAUNTON        CLOUDY    44  40  85 VRB7      29.99R                  
NEW BEDFORD    CLOUDY    44  43  96 N3        29.98R                  
$$

MAZALL-261500-
CAPE COD AND THE ISLANDS
  
CITY           SKY/WX    TMP DP  RH WIND       PRES   REMARKS
FALMOUTH       CLOUDY    43  43 100 NE8       29.98R FOG              
HYANNIS        CLOUDY    45  42  89 N7        29.97R FOG              
CHATHAM        FOG       43  43 100 NE8       29.99R VSB 3/4          
PROVINCETOWN   CLOUDY    43  43 100 NE8       29.99R                  
NANTUCKET      CLOUDY    45  43  93 NE12      29.97R                  
MARTHAS VNYRD  CLOUDY    44  43  96 NE7       29.98R                  
$$
 
MAZALL-261500-
CENTRAL AND WESTERN MASSACHUSETTS
  
CITY           SKY/WX    TMP DP  RH WIND       PRES   REMARKS
WORCESTER      CLOUDY    40  36  86 NE7       29.97S                  
FITCHBURG      CLOUDY    44  34  67 NE5       30.00S                  
ORANGE         CLOUDY    41  37  86 NE3       29.99F                  
SPRINGFIELD    CLOUDY    41  41  99 NE3       29.97F FOG              
WESTFIELD      CLOUDY    40  38  93 NE5       29.98F FOG              
NORTH ADAMS    CLOUDY    36  34  92 CALM      29.96F FOG              
PITTSFIELD     CLOUDY    39  36  89 NE3       29.93F                  
$$
 
RIZALL-261500-
RHODE ISLAND
  
CITY           SKY/WX    TMP DP  RH WIND       PRES   REMARKS
PROVIDENCE     CLOUDY    45  43  93 N9        29.99R                  
NEWPORT        CLOUDY    46  42  86 NE7       29.97S                  
BLOCK ISLAND   CLOUDY    42  42 100 NE6       29.99R                  
SMITHFIELD     CLOUDY    42  41  96 NE8       29.98S FOG              
WESTERLY       CLOUDY    47  41  80 VRB3      29.99R                  
$$
 
CTZALL-261500-
CONNECTICUT
  
CITY           SKY/WX    TMP DP  RH WIND       PRES   REMARKS
BRADLEY INTL   CLOUDY    42  40  92 N9        29.97F FOG              
HARTFORD       CLOUDY    43  41  93 N7        29.98S FOG              
BRIDGEPORT     CLOUDY    46  43  89 NE9       29.97R FOG              
DANBURY        CLOUDY    43  42  97 E8        29.97R FOG              
GROTON         CLOUDY    45  43  93 NE6       29.98R                  
NEW HAVEN      CLOUDY    48  45  89 E6        29.97R                  
CHESTER        CLOUDY    45  43  93 E7        29.96S                  
MERIDEN        CLOUDY    45  42  89 NE6       29.97S                  
WILLIMANTIC    CLOUDY    44  42  93 NE7       29.99R                  
OXFORD         CLOUDY    42  41  96 E8        29.96R                  
$$

MEZ002-015-021-024-NHZ003-005-008-011-012-014-VTZ005-008-261500-
NORTHERN NEW ENGLAND
  
CITY           SKY/WX    TMP DP  RH WIND       PRES   REMARKS
PORTLAND ME    LGT RAIN  43  33  68 NE5       30.03R                  
BANGOR ME      PTSUNNY   35  24  64 N8        30.06R WCI  29          
CONCORD NH     CLOUDY    36  31  82 CALM      30.02R                  
MANCHESTER NH  CLOUDY    41  34  76 N8        30.00R                  
NASHUA NH      CLOUDY    42  39  89 N6        30.01S                  
PORTSMOUTH NH  CLOUDY    45  33  64 N6        30.00                   
JAFFREY NH     CLOUDY    38  35  89 CALM      29.98F                  
KEENE NH       CLOUDY    36  35  96 CALM      30.00F                  
BURLINGTON VT  FLURRIES  30  23  75 NW8       30.05S WCI  22          
MT. WASHINGTON SNOWSHWR  23  21  93 SE2         N/A  FOG              
$$

NYZ052-076-261500-
EASTERN NEW YORK
  
CITY           SKY/WX    TMP DP  RH WIND       PRES   REMARKS
ALBANY         DRIZZLE   36  31  82 N7        29.99F WCI  30          
NEW YORK CITY  CLOUDY    45  43  93 NE8       29.96R FOG              
$$
 
ANZALL-261500-
MARINE OBSERVATIONS
  
STATION/POSITION TIME  TEMP    WIND        PRES    VSBY  WAVE
                       AIR SEA DIR/SP/G                  HT/PER
                 (UTC) (F)     (DEG/KT/KT) (MB)    (MI)  (FT/S)
BOSTON BUOY      1350   41 42   20/ 10/ 12 1015.2R         2/10
BUZZARDS BAY     1300           50/ 14/ 14 1015.2R
NANTUCKET SOUND  1340                        N/A           1
MASS BAY-STELLWA 1304   40 40   30/ 10/ 12 1013.4R  1 7/8  3/11
ISLE OF SHOALS   1400   41      20/ 14/ 16 1015.8R
S OF BLOCK IS    1330      44                N/A           5/10
$$

......................KEY.........................
  SKY/WX - SKY CONDITION/PRESENT WEATHER
  TMP    - TEMPERATURE IN FAHRENHEIT
  DWPT   - DEWPOINT IN FAHRENHEIT
  RH     - RELATIVE HUMIDITY IN PERCENT
  WIND   - DIRECTION AND SPEED IN MPH
  PRES   - MEAN SEA LEVEL PRESSURE IN INCHES OF HG
  WCI    - WIND CHILL INDEX
  VSB    - VISIBILITY IN MILES
  HX     - HEAT INDEX
  TC     - TEMPERATURE IN CELSIUS
  VRB    - VARIABLE WIND DIRECTION
  N/A    - NOT AVAILABLE
  
      

Other recent Regional Weather Roundups

Sat Feb 29, 1:10am

Sat Feb 29, 1:00am

Sat Feb 29, 12:10am

Sat Feb 29, 12:00am

Fri Feb 28, 11:10pm

Fri Feb 28, 11:00pm

Fri Feb 28, 10:10pm

Fri Feb 28, 10:00pm

Fri Feb 28, 9:10pm

Fri Feb 28, 9:00pm

Fri Feb 28, 8:10pm

Fri Feb 28, 8:01pm

Fri Feb 28, 7:10pm

Fri Feb 28, 7:00pm

Fri Feb 28, 6:10pm

Fri Feb 28, 6:01pm

Fri Feb 28, 5:10pm

Fri Feb 28, 5:00pm

Fri Feb 28, 4:10pm

Fri Feb 28, 4:01pm

Fri Feb 28, 3:10pm

Fri Feb 28, 3:00pm

Fri Feb 28, 2:10pm

Fri Feb 28, 2:00pm

Fri Feb 28, 1:10pm

Fri Feb 28, 1:01pm

Fri Feb 28, 12:10pm

Fri Feb 28, 12:01pm

Fri Feb 28, 11:10am

Fri Feb 28, 11:00am

Fri Feb 28, 10:10am

Fri Feb 28, 10:00am

Fri Feb 28, 9:10am

Fri Feb 28, 9:01am

Fri Feb 28, 8:10am

Fri Feb 28, 8:00am

Fri Feb 28, 7:10am

Fri Feb 28, 7:00am

Fri Feb 28, 6:10am

Fri Feb 28, 6:00am

Fri Feb 28, 5:10am

Fri Feb 28, 5:00am

Fri Feb 28, 4:10am

Fri Feb 28, 4:00am

Fri Feb 28, 3:10am

Fri Feb 28, 3:00am

Fri Feb 28, 2:10am

Fri Feb 28, 2:00am

Fri Feb 28, 1:10am

Fri Feb 28, 1:00am

Fri Feb 28, 12:10am

Fri Feb 28, 12:00am

Thu Feb 27, 11:10pm

Thu Feb 27, 11:01pm

Thu Feb 27, 10:10pm

Thu Feb 27, 10:00pm

Thu Feb 27, 9:10pm

Thu Feb 27, 9:00pm

Thu Feb 27, 8:10pm

Thu Feb 27, 8:01pm

Thu Feb 27, 7:10pm

Thu Feb 27, 7:00pm

Wed Feb 26, 11:10am

Wed Feb 26, 11:00am

Wed Feb 26, 10:10am

Wed Feb 26, 10:01am

Wed Feb 26, 9:00am

Wed Feb 26, 8:10am

Wed Feb 26, 8:00am

Wed Feb 26, 7:10am

Wed Feb 26, 7:00am

Wed Feb 26, 6:10am

Wed Feb 26, 6:00am

Wed Feb 26, 5:10am

Wed Feb 26, 5:00am

Wed Feb 26, 4:10am

Wed Feb 26, 4:00am

Wed Feb 26, 3:10am

Wed Feb 26, 3:00am

Wed Feb 26, 2:10am

Wed Feb 26, 2:00am

Meta data:

ID: 78da220f-93c5-4f1f-8e88-22d93a65b4b2
Link: https://api.weather.gov/products/78da220f-93c5-4f1f-8e88-22d93a65b4b2